Location: Madrid
(40.4000°N, 3.6830°W)
Time: 12:19:15
(UTC+01:00)

ISS - Pass Details

Date: 22 March 2019
Orbit: 408 x 411 km, 51.6° (Epoch: 24 March)

Event Time Altitude Azimuth Distance (km) Brightness Sun altitude
Rises 21:07:08 0° 245° (WSW) 2,325 0.7 -19.3°
Reaches altitude 10° 21:09:15 10° 250° (WSW) 1,467 -0.3 -19.6°
Maximum altitude 21:12:28 50° 328° (NNW) 531 -3.0 -20.2°
Enters shadow 21:13:14 39° 12° (NNE) 625 -2.9 -20.3°
